Home > Time Zones > World Clock > Weather > U.S.A. > Hilo > Past weeks

Flag for U.S.A. Weather past 2 weeks in Hilo, Hawaii, U.S.A.

Now
74 °F

Passing clouds.


Feels Like: 73 °F
Forecast: 71 / 84 °F
Wind: 6 mph from West

Location: Hilo International Airport

Current Time: Jul 6, 2015 at 11:44:22 PM

Latest Report: Jul 6, 2015 at 10:53 PM


Visibility: 10 mi

Pressure: 30.02 "Hg

Humidity: 88%

Dew point: 70 °F

Location of HiloLocation

Historic Weather in Hilo — Graph

°F

Hilo temperature yesterday

Maximum temperature yesterday: 86 °F (at 1:53 PM)
Minimum temperature yesterday: 70 °F (at 2:53 AM)
Average temperature yesterday: 77 °F

Past Weeks' High & Low Weather Summary

 TemperatureHumidityPressure
High87 °F (Jul 1, 11:53 AM)97% (Jun 27, 4:53 AM)30.07 "Hg (Jun 27, 4:53 AM)
Low70 °F (Jun 22, 7:29 AM)55% (Jul 3, 11:53 AM)29.86 "Hg (Jul 1, 3:53 PM)
Average77 °F77%29.97 "Hg
* Reported Jun 21 9:53 PM — Jul 6 9:53 PM, Hilo, Weather by CustomWeather, © 2015

Note: Actual official high and low records may vary slightly from our data, if they occured in-between our weather recording intervals... More about our weather records

Advertising

Hilo weather history for previous 24 hours

 ConditionsComfort  
Time TempWeatherWind HumidityBarometerVisibility
9:53 PM
Mon, Jul 6
74 °FPartly cloudy.5 mph91%30.01 "Hg10 mi
8:53 PM76 °FPassing clouds.6 mph82%30.00 "Hg10 mi
8:35 PM75 °FLight rain. Overcast.9 mph83%30.00 "Hg7 mi
7:53 PM78 °FOvercast.5 mph79%29.99 "Hg10 mi
6:53 PM78 °FPartly sunny.3 mph79%29.97 "Hg10 mi
5:53 PM75 °FRain. Cloudy.8 mph85%29.96 "Hg4 mi
4:53 PM77 °FPartly sunny.10 mph82%29.95 "Hg10 mi
3:53 PM86 °FScattered clouds.12 mph57%29.94 "Hg10 mi
2:53 PM85 °FScattered clouds.10 mph61%29.95 "Hg10 mi
1:53 PM82 °FLight rain. Scattered clouds.10 mph63%29.96 "Hg10 mi
12:53 PM86 °FScattered clouds.9 mph59%29.96 "Hg10 mi
11:53 AM85 °FScattered clouds.7 mph61%29.97 "Hg10 mi
10:53 AM83 °FScattered clouds.10 mph65%29.98 "Hg10 mi
9:53 AM82 °FPartly sunny.8 mph65%29.99 "Hg10 mi
8:53 AM80 °FMostly cloudy.8 mph69%29.99 "Hg10 mi
7:53 AM75 °FMore clouds than sun.10 mph85%29.99 "Hg10 mi
6:53 AM73 °FMostly cloudy.8 mph88%29.98 "Hg10 mi
5:53 AM73 °FLight rain. Mostly cloudy.9 mph84%29.98 "Hg5 mi
4:53 AM73 °FOvercast.5 mph88%29.96 "Hg10 mi
3:53 AM73 °FOvercast.7 mph90%29.95 "Hg10 mi
2:53 AM74 °FMostly cloudy.12 mph88%29.95 "Hg10 mi
1:53 AM76 °FPassing clouds.6 mph82%29.95 "Hg10 mi
12:53 AM77 °FOvercast.3 mph77%29.96 "Hg10 mi
11:53 PM
Sun, Jul 5
75 °FOvercast.6 mph76%29.98 "Hg10 mi
Weather by CustomWeather, © 2015

See weather overviewHow to use our weather pages